Hourly Data Report for August 13, 2004

TORONTO CITY
ONTARIO

43°40'00.000" N
79°24'00.000" W
112.50 m
6158355
71508
XTO

Download Data

Hourly Data (August 2004)
Hourly Data Report for August 13, 2004
TIME Temp Definition
°C
Dew Point Definition
°C
Rel Hum Definition
%
Wind Dir Definition
10's deg

Wind Spd Definition
km/h
Visibility Definition
km
Stn Press Definition
kPa
Hmdx Definition


Wind Chill Definition


Weather Definition


00:00 18.1 12.4 69 LegendMM LegendMM LegendMM 100.15     LegendNANA
01:00 17.3 12.7 74 LegendMM LegendMM LegendMM 100.13     LegendNANA
02:00 17.0 12.8 76 LegendMM LegendMM LegendMM 100.09     LegendNANA
03:00 16.8 12.6 76 LegendMM LegendMM LegendMM 100.06     LegendNANA
04:00 16.6 12.4 76 LegendMM LegendMM LegendMM 100.02     LegendNANA
05:00 15.9 12.0 78 LegendMM LegendMM LegendMM 100.06     LegendNANA
06:00 15.8 12.1 79 LegendMM LegendMM LegendMM 100.12     LegendNANA
07:00 16.8 12.1 74 LegendMM LegendMM LegendMM 100.10     LegendNANA
08:00 18.1 12.4 69 LegendMM LegendMM LegendMM 100.09     LegendNANA
09:00 18.9 12.7 67 LegendMM LegendMM LegendMM 100.07     LegendNANA
10:00 18.3 13.9 76 LegendMM LegendMM LegendMM 100.13     LegendNANA
11:00 17.2 15.6 90 LegendMM LegendMM LegendMM 100.18     LegendNANA
12:00 16.7 15.4 92 LegendMM LegendMM LegendMM 100.24     LegendNANA
13:00 16.6 14.7 89 LegendMM LegendMM LegendMM 100.26     LegendNANA
14:00 16.7 14.9 89 LegendMM LegendMM LegendMM 100.30     LegendNANA
15:00 17.6 13.7 78 LegendMM LegendMM LegendMM 100.25     LegendNANA
16:00 18.1 14.0 77 LegendMM LegendMM LegendMM 100.27     LegendNANA
17:00 18.3 14.3 77 LegendMM LegendMM LegendMM 100.33     LegendNANA
18:00 18.3 14.3 77 LegendMM LegendMM LegendMM 100.34     LegendNANA
19:00 18.0 13.8 76 LegendMM LegendMM LegendMM 100.37     LegendNANA
20:00 17.4 13.6 78 LegendMM LegendMM LegendMM 100.41     LegendNANA
21:00 15.8 13.0 83 LegendMM LegendMM LegendMM 100.45     LegendNANA
22:00 15.1 13.1 88 LegendMM LegendMM LegendMM 100.47     LegendNANA
23:00 15.5 13.8 90 LegendMM LegendMM LegendMM 100.46     LegendNANA

Notes on Data Quality.

Legend

  • E = Estimated
  • M = Missing
  • NA = Not Available*
  • [empty] = Indicates an unobserved value
Date modified: